Location: Unspecified
(0.0000°N, 0.0000°E)
Time: 00:53:22
(UTC+00:00)

OTV 5 (USA 277) - Pass Details

Date: 16 February 2019
Orbit: 342 x 346 km, 54.5° (Epoch: 09 February)

Event Time Altitude Azimuth Distance (km) Brightness Sun altitude
Rises 18:48:54 0° 186° (S) 2,137 ? -8.5°
Reaches altitude 10° 18:51:30 10° 160° (SSE) 1,293 ? -9.1°
Maximum altitude 18:53:12 15° 123° (ESE) 1,062 ? -9.6°
Enters shadow 18:54:09 13° 101° (E) 1,135 ? -9.8°
